Weather reports worldwide

Advertisment
Heraklion, Greece (16754): temperature & dewpoint: 18.01.2019 01:00:00 - 24.01.2019 01:00:00 (EET)Heraklion, Greece (16754): wind speed: 18.01.2019 01:00:00 - 24.01.2019 01:00:00 (EET)Heraklion, Greece (16754): wind direction: 18.01.2019 01:00:00 - 24.01.2019 01:00:00 (EET)Heraklion, Greece (16754): reduced air pressure: 18.01.2019 01:00:00 - 24.01.2019 01:00:00 (EET)Heraklion, Greece (16754): visibility: 18.01.2019 01:00:00 - 24.01.2019 01:00:00 (EET)
Date & Time tt [°C] td [°C] ff [km/h] ff [kn] dd ppp [hPa] vv [km]
24.01.2019 01:00:00 16,0 10,0 26 14 SSE - 10
24.01.2019 00:00:00 15,0 11,0 24 13 SSE - 10
23.01.2019 23:00:00 14,6 10,4 29 16 SE 1001,0 10
23.01.2019 22:00:00 14,0 11,0 24 13 SSE - 8
23.01.2019 21:00:00 15,0 8,0 21 11 SSE - 10
23.01.2019 20:00:00 14,6 8,7 18 10 SSE 1003,0 10
23.01.2019 19:00:00 15,0 9,0 21 11 SE - 10
23.01.2019 18:00:00 15,0 9,0 28 15 SSE - 10
23.01.2019 17:00:00 15,4 8,8 16 9 SSE 1004,3 10
23.01.2019 16:00:00 16,0 9,0 22 12 SSE - 10
23.01.2019 15:00:00 16,0 10,0 31 17 SSE - 10
23.01.2019 14:00:00 15,8 9,7 29 16 S 1007,3 10
23.01.2019 13:00:00 18,0 10,0 29 16 SSE - 10
23.01.2019 12:00:00 17,0 9,0 22 12 S - 10
23.01.2019 11:00:00 18,4 8,4 24 13 S 1009,5 10
23.01.2019 10:00:00 17,0 9,0 26 14 S - 10
23.01.2019 09:00:00 15,0 10,0 16 9 S - 10
23.01.2019 08:00:00 15,0 8,3 28 15 S 1009,8 10
23.01.2019 07:00:00 15,0 9,0 34 18 S - 10
23.01.2019 06:00:00 15,0 10,0 28 15 S - 10
23.01.2019 05:00:00 14,4 9,4 31 17 S 1010,2 10
23.01.2019 04:00:00 14,0 9,0 35 19 S - 10
23.01.2019 03:00:00 14,0 10,0 37 20 S - 10
23.01.2019 02:00:00 13,8 9,5 35 19 S 1012,0 10
23.01.2019 01:00:00 13,0 9,0 37 20 S - 10
23.01.2019 00:00:00 13,0 10,0 39 21 SSE - 10
22.01.2019 23:00:00 12,8 8,8 37 20 S 1013,1 10
22.01.2019 22:00:00 13,0 9,0 35 19 S - 10
22.01.2019 21:00:00 13,0 8,0 35 19 S - 10
22.01.2019 20:00:00 13,4 8,2 22 12 S 1013,4 10
22.01.2019 19:00:00 13,0 8,0 22 12 SSE - 10
22.01.2019 18:00:00 14,0 8,0 34 18 S - 10
22.01.2019 17:00:00 15,6 7,2 21 11 S 1013,6 10
22.01.2019 16:00:00 18,0 8,0 15 8 S - 10
22.01.2019 15:00:00 18,0 7,0 16 9 S - 10
22.01.2019 14:00:00 18,0 7,4 15 8 SSW 1015,0 10
22.01.2019 13:00:00 16,0 10,0 11 6 NE - 10
22.01.2019 12:00:00 16,0 9,0 9 5 NNW - 10
22.01.2019 11:00:00 15,6 10,3 0 0 N 1016,9 10
22.01.2019 10:00:00 14,0 9,0 13 7 SSE - 10
22.01.2019 09:00:00 11,0 8,0 13 7 SSE - 10
22.01.2019 08:00:00 8,8 7,1 13 7 SSE 1016,7 10
22.01.2019 07:00:00 9,0 7,0 15 8 SSE - 10
22.01.2019 06:00:00 9,0 7,0 9 5 S - 10
22.01.2019 05:00:00 9,2 6,6 18 10 SSE 1016,6 10
22.01.2019 04:00:00 9,0 8,0 11 6 S - 10
22.01.2019 03:00:00 9,0 8,0 13 7 SSE - 10
22.01.2019 02:00:00 9,6 8,4 9 5 S 1017,4 10
22.01.2019 01:00:00 9,0 8,0 15 8 S - 10
22.01.2019 00:00:00 10,0 8,0 9 5 S - 10
21.01.2019 23:00:00 10,0 8,4 13 7 S 1017,1 10
21.01.2019 22:00:00 10,0 8,0 9 5 S - 10
21.01.2019 21:00:00 11,0 9,0 11 6 S - 10
21.01.2019 20:00:00 10,6 9,4 9 5 S 1016,7 10
21.01.2019 19:00:00 13,0 7,0 5 3 - - 10
21.01.2019 18:00:00 13,0 10,0 11 6 NW - 10
21.01.2019 17:00:00 14,4 9,8 16 9 NW 1015,3 10
21.01.2019 16:00:00 15,0 10,0 18 10 NW - 10
21.01.2019 15:00:00 15,0 11,0 24 13 NW - 10
21.01.2019 14:00:00 15,8 11,0 26 14 NW 1015,4 10
21.01.2019 13:00:00 15,0 10,0 24 13 NW - 10
21.01.2019 12:00:00 15,0 10,0 9 5 NW - 10
21.01.2019 11:00:00 14,6 10,4 5 3 N 1015,8 10
21.01.2019 10:00:00 14,0 11,0 5 3 S - 10
21.01.2019 09:00:00 11,0 9,0 8 4 S - 10
21.01.2019 08:00:00 9,4 8,6 9 5 S 1014,5 10
21.01.2019 07:00:00 9,0 9,0 9 5 S - 10
21.01.2019 06:00:00 9,0 9,0 8 4 WSW - 10
21.01.2019 05:00:00 9,8 9,8 8 4 S 1013,6 10
21.01.2019 04:00:00 12,0 11,0 8 4 S - 10
21.01.2019 03:00:00 12,0 11,0 13 7 W - 9
21.01.2019 02:00:00 11,6 11,2 8 4 W 1013,8 10
21.01.2019 01:00:00 12,0 10,0 15 8 S - 9
21.01.2019 00:00:00 12,0 11,0 9 5 S - 8
20.01.2019 23:00:00 11,4 10,2 18 10 S 1014,3 10
20.01.2019 22:00:00 11,0 10,0 2 1 - - 8
20.01.2019 21:00:00 11,0 10,0 11 6 WSW - 10
20.01.2019 20:00:00 11,4 9,8 18 10 SSW 1015,5 10
20.01.2019 19:00:00 12,0 9,0 5 3 - - 10
20.01.2019 18:00:00 12,0 10,0 15 8 S - 10
20.01.2019 17:00:00 12,4 10,9 9 5 SSE 1015,4 10
20.01.2019 16:00:00 12,0 11,0 16 9 SSE - 10
20.01.2019 15:00:00 12,0 9,0 29 16 SSE - 10
20.01.2019 14:00:00 13,6 11,4 9 5 SSE 1016,9 10
20.01.2019 13:00:00 15,0 11,0 18 10 SSE - 10
20.01.2019 12:00:00 15,0 11,0 13 7 SSE - 10
20.01.2019 11:00:00 14,8 11,5 16 9 S 1018,6 10
20.01.2019 10:00:00 14,0 11,0 18 10 S - 10
20.01.2019 09:00:00 14,0 8,0 34 18 S - 10
20.01.2019 08:00:00 13,0 7,3 35 19 S 1017,3 10
20.01.2019 07:00:00 12,0 8,0 35 19 S - 10
20.01.2019 06:00:00 11,0 6,0 31 17 S - 10
20.01.2019 05:00:00 12,0 6,1 26 14 S 1018,3 10
20.01.2019 04:00:00 12,0 7,0 26 14 S - 10
20.01.2019 03:00:00 12,0 7,0 26 14 S - 10
20.01.2019 02:00:00 12,0 6,6 16 9 S 1018,3 10
20.01.2019 01:00:00 12,0 8,0 21 11 S - 10
20.01.2019 00:00:00 12,0 8,0 21 11 S - 10
19.01.2019 23:00:00 12,0 7,9 24 13 S 1018,6 10
19.01.2019 22:00:00 12,0 9,0 13 7 S - 10
19.01.2019 21:00:00 12,0 9,0 16 9 S - 10
19.01.2019 20:00:00 12,2 8,6 18 10 S 1018,9 10
19.01.2019 19:00:00 11,0 9,0 18 10 S - 10
19.01.2019 18:00:00 13,0 9,0 16 9 S - 10
19.01.2019 17:00:00 14,2 10,0 18 10 S 1018,5 10
19.01.2019 16:00:00 15,0 11,0 24 13 S - 10
19.01.2019 15:00:00 16,0 12,0 28 15 S - 10
19.01.2019 14:00:00 14,8 9,8 24 13 S 1018,5 10
19.01.2019 13:00:00 14,0 8,0 28 15 S - 10
19.01.2019 12:00:00 14,0 8,0 28 15 S - 10
19.01.2019 11:00:00 13,4 7,3 26 14 S 1019,4 10
19.01.2019 10:00:00 11,0 7,0 26 14 S - 10
19.01.2019 09:00:00 11,0 7,0 28 15 S - 10
19.01.2019 08:00:00 10,2 6,4 26 14 S 1019,5 10
19.01.2019 07:00:00 10,0 6,0 28 15 S - 10
19.01.2019 06:00:00 10,0 6,0 18 10 S - 10
19.01.2019 05:00:00 10,0 6,1 21 11 S 1019,3 10
19.01.2019 04:00:00 10,0 6,0 22 12 S - 10
19.01.2019 03:00:00 10,0 6,0 18 10 S - 10
19.01.2019 02:00:00 9,4 6,8 22 12 S 1020,3 10
19.01.2019 01:00:00 11,0 8,0 18 10 SSE - 10
19.01.2019 00:00:00 11,0 8,0 16 9 S - 10
18.01.2019 23:00:00 11,4 8,1 21 11 S 1021,0 10
18.01.2019 22:00:00 12,0 8,0 15 8 S - 10
18.01.2019 21:00:00 12,0 8,0 15 8 S - 10
18.01.2019 20:00:00 11,6 7,9 13 7 S 1020,3 10
18.01.2019 19:00:00 11,0 7,0 8 4 S - 10
18.01.2019 18:00:00 12,0 8,0 9 5 SSE - 10
18.01.2019 17:00:00 14,6 10,8 11 6 ENE 1020,3 10
18.01.2019 16:00:00 14,0 11,0 8 4 E - 10
18.01.2019 15:00:00 15,0 11,0 8 4 ENE - 10
18.01.2019 14:00:00 14,4 11,0 9 5 N 1020,6 10
18.01.2019 13:00:00 14,0 11,0 5 3 - - 10
18.01.2019 12:00:00 15,0 10,0 11 6 ENE - 10
18.01.2019 11:00:00 14,4 10,2 8 4 SE 1021,4 10
18.01.2019 10:00:00 13,0 10,0 13 7 SSE - 10
18.01.2019 09:00:00 10,0 6,0 16 9 SSE - 10
18.01.2019 08:00:00 8,2 5,1 21 11 SSE 1020,7 10
18.01.2019 07:00:00 8,0 6,0 18 10 SSE - 10
18.01.2019 06:00:00 8,0 6,0 21 11 SSE - 10
18.01.2019 05:00:00 8,0 5,8 5 3 - 1020,3 10
18.01.2019 04:00:00 8,0 6,0 11 6 S - 10
18.01.2019 03:00:00 8,0 6,0 18 10 SSE - 10
18.01.2019 02:00:00 8,2 6,0 16 9 SSE 1020,9 10
18.01.2019 01:00:00 9,0 7,0 11 6 S - 10

tt = temperature
td = dewpoint
ff = wind speed
dd = wind direction
ppp = reduced air pressure
vv = visibility

Next stations